DW9864 Weather Reports


Display with metric or nautical units.
time (UTC)temp
F
wind
direction
speed
MPH
gust
MPH
rain 1hr
in
rain 24hr
in
rain mn
in
humidity
%
barometer
mb
20260504050503 56 334 2.0 6.0 0.00 0.09 0.02 90 1012.8
20260504050017 56 318 2.0 5.0 0.00 0.09 0.02 90 1012.8
20260504045503 56 273 1.0 3.0 0.00 0.09 0.02 90 1012.9
20260504045003 56 272 1.0 3.0 0.00 0.09 0.02 90 1012.8
20260504044504 56 272 1.0 3.0 0.00 0.09 0.02 90 1012.8
20260504044003 56 271 1.0 3.0 0.00 0.09 0.02 90 1012.8
20260504043503 57 271 0.0 3.0 0.00 0.09 0.02 90 1012.8
20260504043003 57 271 0.0 2.0 0.00 0.09 0.02 90 1012.7
20260504042503 57 271 0.0 2.0 0.00 0.09 0.02 90 1012.8
20260504042003 56 271 0.0 1.0 0.00 0.09 0.02 90 1012.8
20260504041503 56 271 0.0 1.0 0.00 0.09 0.02 90 1012.8
20260504041003 56 271 0.0 2.0 0.00 0.09 0.02 90 1012.9
20260504040517 56 271 0.0 2.0 0.01 0.09 0.02 90 1012.8
20260504040017 56 270 0.0 2.0 0.02 0.09 0.02 90 1013.0
20260504035503 56 231 1.0 4.0 0.02 0.09 0.02 90 1013.0
20260504035017 56 181 1.0 6.0 0.02 0.09 0.02 90 1013.0
20260504034517 56 210 2.0 6.0 0.02 0.09 0.02 90 1012.9
20260504034017 56 322 1.0 3.0 0.02 0.09 0.02 89 1012.9
20260504033503 56 258 1.0 4.0 0.02 0.09 0.02 90 1013.0
20260504033003 56 245 2.0 5.0 0.02 0.09 0.02 90 1013.1
20260504032503 56 279 1.0 5.0 0.02 0.09 0.02 90 1013.1
20260504032003 56 310 1.0 4.0 0.02 0.09 0.02 90 1013.1
20260504031503 56 327 1.0 4.0 0.02 0.09 0.02 90 1013.1
20260504031003 56 318 1.0 4.0 0.02 0.09 0.02 89 1013.2
20260504030503 56 31 1.0 4.0 0.02 0.09 0.02 89 1013.3
20260504030003 57 79 1.0 3.0 0.01 0.08 0.01 89 1013.3
20260504025503 57 269 1.0 4.0 0.01 0.08 0.01 89 1013.2
20260504025003 57 306 2.0 5.0 0.01 0.08 0.01 88 1013.2
20260504024503 57 316 2.0 5.0 0.01 0.08 0.01 88 1013.2
20260504024003 57 309 1.0 5.0 0.01 0.08 0.01 88 1013.3
20260504023503 57 311 1.0 5.0 0.00 0.07 0.00 88 1013.3
20260504023003 56 326 1.0 4.0 0.00 0.07 0.00 88 1013.3
20260504022503 56 360 1.0 4.0 0.00 0.07 0.00 89 1013.3
20260504022003 56 360 1.0 4.0 0.00 0.07 0.00 89 1013.3
20260504021503 56 360 0.0 1.0 0.00 0.07 0.00 89 1013.2
20260504021003 56 360 0.0 2.0 0.00 0.07 0.00 89 1013.1
20260504020503 56 360 1.0 2.0 0.00 0.07 0.00 89 1013.2
20260504020003 56 360 1.0 2.0 0.00 0.07 0.00 88 1013.1
20260504015503 57 360 0.0 1.0 0.00 0.07 0.00 88 1013.0
20260504015003 57 359 0.0 4.0 0.00 0.07 0.00 88 1013.1
20260504014503 56 357 1.0 4.0 0.00 0.07 0.00 88 1013.2
20260504014003 56 4 1.0 3.0 0.00 0.07 0.00 88 1013.2
20260504013517 56 4 1.0 3.0 0.00 0.07 0.00 88 1013.2
20260504013003 56 280 1.0 3.0 0.00 0.07 0.00 89 1013.2
20260504012517 56 270 1.0 3.0 0.00 0.07 0.00 89 1013.1
20260504012003 56 270 0.0 2.0 0.00 0.07 0.00 89 1013.0
20260504011503 56 258 0.0 3.0 0.00 0.07 0.00 89 1013.3
20260504011003 56 245 1.0 3.0 0.00 0.07 0.00 89 1013.2
20260504010517 56 231 1.0 3.0 0.00 0.07 0.00 89 1013.2
20260504010017 56 231 1.0 3.0 0.00 0.07 0.00 89 1013.1
20260504005517 57 231 0.0 2.0 0.00 0.07 0.00 89 1013.0
20260504005004 57 0 0.0 0.0 0.00 0.07 0.00 89 1013.1
20260504004503 57 107 0.0 1.0 0.00 0.07 0.00 88 1013.0
20260504004003 57 107 0.0 3.0 0.00 0.07 0.00 89 1012.9
20260504003503 57 100 1.0 4.0 0.00 0.07 0.00 89 1012.8
20260504003003 57 92 1.0 4.0 0.00 0.07 0.00 88 1012.8
20260504002503 57 88 1.0 2.0 0.00 0.07 0.00 88 1012.8
20260504002003 58 73 1.0 3.0 0.00 0.07 0.00 88 1012.6
20260504001503 58 47 1.0 3.0 0.00 0.07 0.00 88 1012.6
20260504001003 58 16 1.0 3.0 0.00 0.07 0.00 88 1012.5
20260504000503 57 326 0.0 3.0 0.00 0.07 0.00 88 1012.5
20260504000003 57 313 1.0 3.0 0.00 0.07 0.00 88 1012.5
20260503235503 57 304 1.0 5.0 0.00 0.07 0.00 88 1012.7
20260503235003 57 215 3.0 10.0 0.00 0.07 0.00 88 1012.7
20260503234517 57 186 3.0 10.0 0.00 0.07 0.00 88 1012.8
20260503234003 58 158 3.0 7.0 0.00 0.07 0.00 88 1012.8
20260503233503 58 173 3.0 10.0 0.00 0.07 0.00 87 1012.7
20260503233017 58 204 3.0 10.0 0.00 0.07 0.00 88 1012.5
20260503232503 58 245 4.0 9.0 0.00 0.07 0.00 88 1012.9
20260503232003 58 269 3.0 9.0 0.00 0.07 0.00 89 1012.9
20260503231503 58 313 4.0 14.0 0.00 0.07 0.00 90 1012.9
20260503231003 58 299 5.0 14.0 0.00 0.07 0.00 91 1013.0
20260503230503 58 267 5.0 14.0 0.00 0.07 0.00 91 1013.1
20260503230003 58 250 4.0 10.0 0.00 0.07 0.00 91 1012.8
20260503225503 59 283 4.0 10.0 0.00 0.07 0.00 91 1012.8
20260503225003 59 309 4.0 10.0 0.00 0.07 0.00 91 1012.7
20260503224517 59 316 2.0 9.0 0.00 0.07 0.00 91 1012.6
20260503224003 59 328 0.0 6.0 0.00 0.07 0.00 92 1012.4
20260503223503 59 0 0.0 0.0 0.00 0.07 0.00 92 1012.3
20260503223003 59 0 0.0 0.0 0.00 0.07 0.00 91 1012.3
20260503222503 59 0 0.0 0.0 0.00 0.07 0.00 91 1012.1
20260503222003 59 314 0.0 1.0 0.00 0.07 0.00 91 1012.3
20260503221504 59 314 0.0 1.0 0.00 0.07 0.00 91 1012.2
20260503221003 59 314 0.0 1.0 0.00 0.07 0.00 91 1012.4
20260503220503 59 314 0.0 1.0 0.00 0.07 0.00 91 1012.4
20260503220003 59 314 0.0 1.0 0.00 0.07 0.00 91 1012.4
20260503215503 59 314 0.0 1.0 0.00 0.07 0.07 91 1012.4
20260503215003 59 314 0.0 3.0 0.00 0.07 0.07 91 1012.3
20260503214503 59 315 1.0 3.0 0.00 0.07 0.07 91 1012.3
20260503214003 59 316 2.0 4.0 0.00 0.07 0.07 90 1012.2
20260503213503 59 317 2.0 4.0 0.00 0.07 0.07 90 1012.4
20260503213003 59 318 1.0 3.0 0.00 0.07 0.07 91 1012.3
20260503212517 60 319 0.0 2.0 0.00 0.07 0.07 91 1012.3
20260503212003 60 319 0.0 2.0 0.00 0.07 0.07 91 1012.3
20260503211503 60 319 0.0 2.0 0.00 0.07 0.07 90 1012.4
20260503211003 60 0 0.0 0.0 0.00 0.07 0.07 90 1012.3
20260503210503 60 0 0.0 0.0 0.00 0.07 0.07 90 1012.3
20260503210003 60 319 0.0 1.0 0.00 0.07 0.07 90 1012.3
20260503205517 60 319 0.0 1.0 0.01 0.07 0.07 90 1012.4
20260503205003 60 319 0.0 2.0 0.01 0.07 0.07 90 1012.4
20260503204503 60 319 1.0 2.0 0.01 0.07 0.07 90 1012.4
20260503204003 60 319 0.0 1.0 0.01 0.07 0.07 90 1012.4
20260503203503 60 319 0.0 1.0 0.01 0.07 0.07 90 1012.5
20260503203003 60 319 0.0 1.0 0.01 0.07 0.07 90 1012.5
20260503202517 60 319 0.0 1.0 0.01 0.07 0.07 90 1012.4
20260503202003 60 319 1.0 2.0 0.01 0.07 0.07 89 1012.3
20260503201503 60 319 1.0 2.0 0.01 0.07 0.07 89 1012.4
20260503201003 60 319 0.0 2.0 0.01 0.08 0.07 90 1012.3
20260503200503 60 319 1.0 2.0 0.02 0.08 0.07 89 1012.3
20260503200003 60 319 1.0 2.0 0.02 0.08 0.07 90 1012.3
20260503195503 60 319 1.0 3.0 0.02 0.07 0.06 89 1012.1
20260503195003 60 319 1.0 3.0 0.03 0.07 0.06 89 1012.1
20260503194503 61 321 1.0 5.0 0.03 0.07 0.06 89 1012.1
20260503194017 61 322 2.0 8.0 0.03 0.07 0.06 89 1012.2
20260503193503 60 321 3.0 9.0 0.03 0.07 0.06 89 1012.0
20260503193003 61 327 2.0 9.0 0.03 0.07 0.06 89 1012.0
20260503192503 61 332 4.0 11.0 0.04 0.07 0.06 89 1011.9
20260503192003 61 327 5.0 11.0 0.04 0.07 0.06 88 1011.9
20260503191503 61 325 5.0 11.0 0.04 0.07 0.06 88 1011.8
20260503191017 61 325 5.0 11.0 0.04 0.07 0.06 87 1011.8
20260503190503 61 324 5.0 11.0 0.03 0.06 0.06 86 1011.8
20260503190017 61 323 4.0 9.0 0.02 0.06 0.05 86 1011.6
20260503185503 62 322 5.0 9.0 0.02 0.05 0.04 85 1011.7
20260503185003 62 321 4.0 11.0 0.02 0.04 0.03 85 1011.6
20260503184517 62 322 1.0 11.0 0.02 0.04 0.03 86 1011.5
20260503184003 63 333 0.0 2.0 0.02 0.04 0.03 86 1011.3
20260503183503 63 333 0.0 2.0 0.02 0.04 0.03 86 1011.3
20260503183003 63 333 1.0 2.0 0.02 0.04 0.03 86 1011.2
20260503182503 63 333 1.0 3.0 0.01 0.03 0.02 85 1011.2
20260503182003 63 333 1.0 3.0 0.01 0.03 0.02 84 1011.1
20260503181504 63 333 0.0 1.0 0.01 0.03 0.02 84 1011.1
20260503181003 63 332 1.0 3.0 0.01 0.03 0.02 83 1011.0
20260503180503 63 332 1.0 3.0 0.01 0.03 0.02 82 1010.9
20260503180004 64 331 1.0 2.0 0.01 0.03 0.02 83 1010.9
20260503175517 64 331 1.0 2.0 0.01 0.03 0.02 82 1010.8
20260503175003 64 331 1.0 4.0 0.00 0.02 0.02 82 1010.8
20260503174503 64 331 2.0 4.0 0.00 0.02 0.02 80 1010.7
20260503174003 64 331 1.0 3.0 0.00 0.02 0.02 80 1010.5
20260503173503 64 331 0.0 1.0 0.00 0.02 0.02 79 1010.5
20260503173003 64 331 0.0 2.0 0.00 0.02 0.02 78 1010.5
20260503172503 65 331 1.0 2.0 0.00 0.02 0.02 78 1010.6
20260503172017 65 331 1.0 3.0 0.00 0.02 0.02 77 1010.6
20260503171503 65 331 1.0 3.0 0.00 0.02 0.02 76 1010.7
20260503171003 65 331 1.0 2.0 0.00 0.02 0.02 76 1010.7
20260503170503 66 331 1.0 2.0 0.00 0.02 0.02 74 1010.6
20260503151003 64 100 1.0 3.0 0.00 0.05 0.02 77 1011.6
20260503150503 63 97 1.0 3.0 0.00 0.05 0.02 77 1011.9
20260503131003 62 305 6.0 18.0 0.00 0.03 0.00 77 1013.3
20260503130503 64 302 7.0 17.0 0.00 0.03 0.00 74 1013.2
20260503110503 69 170 5.0 12.0 0.00 0.03 0.00 64 1013.0
20260503090503 66 102 2.0 4.0 0.00 0.03 0.00 79 1013.6
20260503081517 62 314 0.0 2.0 0.00 0.03 0.00 87 1013.7
20260503081003 62 314 1.0 2.0 0.00 0.03 0.00 88 1013.8
20260503080517 61 315 0.0 2.0 0.00 0.03 0.00 89 1013.8
20260503072517 58 0 0.0 0.0 0.00 0.03 0.00 93 1013.8
20260503072003 58 0 0.0 0.0 0.00 0.03 0.00 93 1013.8
20260503071517 58 0 0.0 0.0 0.00 0.03 0.00 93 1013.8
20260503071003 57 0 0.0 0.0 0.00 0.03 0.00 93 1013.9
20260503070503 57 0 0.0 0.0 0.00 0.03 0.00 93 1013.9